Location: Tel Aviv
(32.0670°N, 34.7670°E)
Time: 07:59:56
(UTC+02:00)

Transit 2A Rocket - Pass Details

Date: 16 December 2023
Orbit: 590 x 905 km, 66.7° (Epoch: 01 March)

Event Time Altitude Azimuth Distance (km) Brightness Sun altitude
Rises 17:22:02 0° 201° (SSW) 3,097 8.8 -9.3°
Reaches altitude 10° 17:24:28 10° 199° (SSW) 2,131 7.9 -9.7°
Maximum altitude 17:29:15 77° 114° (ESE) 669 4.6 -10.7°
Drops below altitude 10° 17:33:42 10° 29° (NNE) 1,984 6.7 -11.6°
Enters shadow 17:33:56 - 29° (NNE) 2,077 6.8 -11.6°
